Year,Month,Day,Hour,Minute,Value (Times are PST for temperature in C)
2014,08,01,00,00,17.00
2014,08,01,00,01,17.00
2014,08,01,00,02,16.90
2014,08,01,00,03,16.90
2014,08,01,00,04,16.90
2014,08,01,00,05,16.90
2014,08,01,00,06,16.90
2014,08,01,00,07,16.90
2014,08,01,00,08,16.90
2014,08,01,00,09,16.90
2014,08,01,00,10,16.80
2014,08,01,00,11,16.80
2014,08,01,00,12,16.80
2014,08,01,00,13,16.80
2014,08,01,00,14,16.80
2014,08,01,00,15,16.80
2014,08,01,00,16,16.70
2014,08,01,00,17,16.70
2014,08,01,00,18,16.70
2014,08,01,00,19,16.60
2014,08,01,00,20,16.60
2014,08,01,00,21,16.60
2014,08,01,00,22,16.60
2014,08,01,00,23,16.60
2014,08,01,00,24,16.60
2014,08,01,00,25,16.60
2014,08,01,00,26,16.60
2014,08,01,00,27,16.60
2014,08,01,00,28,16.50
2014,08,01,00,29,16.50
2014,08,01,00,30,16.50
2014,08,01,00,31,16.50
2014,08,01,00,32,16.50
2014,08,01,00,33,16.50
2014,08,01,00,34,16.50
2014,08,01,00,35,16.50
2014,08,01,00,36,16.50
2014,08,01,00,37,16.50
2014,08,01,00,38,16.50
2014,08,01,00,39,16.60
2014,08,01,00,40,16.60
2014,08,01,00,41,16.60
2014,08,01,00,42,16.60
2014,08,01,00,43,16.60
2014,08,01,00,44,16.60
2014,08,01,00,45,16.60
2014,08,01,00,46,16.60
2014,08,01,00,47,16.60
2014,08,01,00,48,16.60
2014,08,01,00,49,16.60
2014,08,01,00,50,16.60
2014,08,01,00,51,16.60
2014,08,01,00,52,16.60
2014,08,01,00,53,16.60
2014,08,01,00,54,16.60
2014,08,01,00,55,16.60
2014,08,01,00,56,16.60
2014,08,01,00,57,16.60
2014,08,01,00,58,16.60
2014,08,01,00,59,16.50
2014,08,01,01,00,16.50
2014,08,01,01,01,16.50
2014,08,01,01,02,16.50
2014,08,01,01,03,16.50
2014,08,01,01,04,16.50
2014,08,01,01,05,16.50
2014,08,01,01,06,16.50
2014,08,01,01,07,16.60
2014,08,01,01,08,16.60
2014,08,01,01,09,16.60
2014,08,01,01,10,16.60
2014,08,01,01,11,16.50
2014,08,01,01,12,16.60
2014,08,01,01,13,16.60
2014,08,01,01,14,16.60
2014,08,01,01,15,16.60
2014,08,01,01,16,16.60
2014,08,01,01,17,16.60
2014,08,01,01,18,16.60
2014,08,01,01,19,16.60
2014,08,01,01,20,16.60
2014,08,01,01,21,16.60
2014,08,01,01,22,16.60
2014,08,01,01,23,16.60
2014,08,01,01,24,16.60
2014,08,01,01,25,16.50
2014,08,01,01,26,16.50
2014,08,01,01,27,16.40
2014,08,01,01,28,16.40
2014,08,01,01,29,16.40
2014,08,01,01,30,16.30
2014,08,01,01,31,16.30
2014,08,01,01,32,16.20
2014,08,01,01,33,16.20
2014,08,01,01,34,16.20
2014,08,01,01,35,16.10
2014,08,01,01,36,16.10
2014,08,01,01,37,16.10
2014,08,01,01,38,16.00
2014,08,01,01,39,16.00
2014,08,01,01,40,15.90
2014,08,01,01,41,15.90
2014,08,01,01,42,15.90
2014,08,01,01,43,15.90
2014,08,01,01,44,15.80
2014,08,01,01,45,15.80
2014,08,01,01,46,15.80
2014,08,01,01,47,15.80
2014,08,01,01,48,15.80
2014,08,01,01,49,15.80
2014,08,01,01,50,15.70
2014,08,01,01,51,15.70
2014,08,01,01,52,15.70
2014,08,01,01,53,15.70
2014,08,01,01,54,15.70
2014,08,01,01,55,15.70
2014,08,01,01,56,15.70
2014,08,01,01,57,15.70
2014,08,01,01,58,15.60
2014,08,01,01,59,15.60
2014,08,01,02,00,15.60
2014,08,01,02,01,15.60
2014,08,01,02,02,15.60
2014,08,01,02,03,15.60
2014,08,01,02,04,15.50
2014,08,01,02,05,15.50
2014,08,01,02,06,15.50
2014,08,01,02,07,15.50
2014,08,01,02,08,15.50
2014,08,01,02,09,15.50
2014,08,01,02,10,15.50
2014,08,01,02,11,15.50
2014,08,01,02,12,15.50
2014,08,01,02,13,15.50
2014,08,01,02,14,15.40
2014,08,01,02,15,15.40
2014,08,01,02,16,15.40
2014,08,01,02,17,15.40
2014,08,01,02,18,15.40
2014,08,01,02,19,15.40
2014,08,01,02,20,15.40
2014,08,01,02,21,15.40
2014,08,01,02,22,15.40
2014,08,01,02,23,15.40
2014,08,01,02,24,15.40
2014,08,01,02,25,15.50
2014,08,01,02,26,15.50
2014,08,01,02,27,15.50
2014,08,01,02,28,15.50
2014,08,01,02,29,15.60
2014,08,01,02,30,15.60
2014,08,01,02,31,15.60
2014,08,01,02,32,15.60
2014,08,01,02,33,15.60
2014,08,01,02,34,15.60
2014,08,01,02,35,15.60
2014,08,01,02,36,15.60
2014,08,01,02,37,15.60
2014,08,01,02,38,15.70
2014,08,01,02,39,15.70
2014,08,01,02,40,15.70
2014,08,01,02,41,15.70
2014,08,01,02,42,15.70
2014,08,01,02,43,15.70
2014,08,01,02,44,15.80
2014,08,01,02,45,15.80
2014,08,01,02,46,15.80
2014,08,01,02,47,15.80
2014,08,01,02,48,15.80
2014,08,01,02,49,15.80
2014,08,01,02,50,15.80
2014,08,01,02,51,15.80
2014,08,01,02,52,15.80
2014,08,01,02,53,15.80
2014,08,01,02,54,15.80
2014,08,01,02,55,15.80
2014,08,01,02,56,15.90
2014,08,01,02,57,15.90
2014,08,01,02,58,15.90
2014,08,01,02,59,15.90
2014,08,01,03,00,16.00
2014,08,01,03,01,16.00
2014,08,01,03,02,16.00
2014,08,01,03,03,16.00
2014,08,01,03,06,16.00
2014,08,01,03,07,16.00
2014,08,01,03,08,16.00
2014,08,01,03,09,16.00
2014,08,01,03,10,16.00
2014,08,01,03,11,16.10
2014,08,01,03,12,16.10
2014,08,01,03,13,16.20
2014,08,01,03,14,16.20
2014,08,01,03,15,16.30
2014,08,01,03,16,16.30
2014,08,01,03,17,16.40
2014,08,01,03,18,16.40
2014,08,01,03,19,16.50
2014,08,01,03,20,16.60
2014,08,01,03,21,16.70
2014,08,01,03,22,16.70
2014,08,01,03,23,16.80
2014,08,01,03,24,16.90
2014,08,01,03,25,17.00
2014,08,01,03,26,17.10
2014,08,01,03,27,17.20
2014,08,01,03,28,17.20
2014,08,01,03,29,17.30
2014,08,01,03,30,17.40
2014,08,01,03,31,17.40
2014,08,01,03,32,17.40
2014,08,01,03,33,17.50
2014,08,01,03,34,17.50
2014,08,01,03,35,17.60
2014,08,01,03,36,17.60
2014,08,01,03,37,17.60
2014,08,01,03,38,17.60
2014,08,01,03,39,17.60
2014,08,01,03,40,17.60
2014,08,01,03,41,17.70
2014,08,01,03,42,17.70
2014,08,01,03,43,17.80
2014,08,01,03,44,17.80
2014,08,01,03,45,17.80
2014,08,01,03,46,17.70
2014,08,01,03,47,17.70
2014,08,01,03,48,17.60
2014,08,01,03,49,17.60
2014,08,01,03,50,17.50
2014,08,01,03,51,17.40
2014,08,01,03,52,17.40
2014,08,01,03,53,17.30
2014,08,01,03,54,17.30
2014,08,01,03,55,17.20
2014,08,01,03,56,17.20
2014,08,01,03,57,17.10
2014,08,01,03,58,17.10
2014,08,01,03,59,17.10
2014,08,01,04,00,17.00
2014,08,01,04,01,17.00
2014,08,01,04,02,16.90
2014,08,01,04,03,16.90
2014,08,01,04,04,16.80
2014,08,01,04,05,16.80
2014,08,01,04,06,16.80
2014,08,01,04,07,16.80
2014,08,01,04,08,16.70
2014,08,01,04,09,16.60
2014,08,01,04,10,16.60
2014,08,01,04,11,16.50
2014,08,01,04,12,16.40
2014,08,01,04,13,16.40
2014,08,01,04,14,16.30
2014,08,01,04,15,16.30
2014,08,01,04,16,16.20
2014,08,01,04,17,16.20
2014,08,01,04,18,16.10
2014,08,01,04,19,16.10
2014,08,01,04,20,16.10
2014,08,01,04,21,16.00
2014,08,01,04,22,16.00
2014,08,01,04,23,15.90
2014,08,01,04,24,15.90
2014,08,01,04,25,15.90
2014,08,01,04,26,15.90
2014,08,01,04,27,15.90
2014,08,01,04,28,15.90
2014,08,01,04,29,16.00
2014,08,01,04,30,16.00
2014,08,01,04,31,16.10
2014,08,01,04,32,16.10
2014,08,01,04,33,16.20
2014,08,01,04,34,16.30
2014,08,01,04,35,16.30
2014,08,01,04,36,16.40
2014,08,01,04,37,16.40
2014,08,01,04,38,16.40
2014,08,01,04,39,16.50
2014,08,01,04,40,16.40
2014,08,01,04,41,16.40
2014,08,01,04,42,16.40
2014,08,01,04,43,16.40
2014,08,01,04,44,16.40
2014,08,01,04,45,16.30
2014,08,01,04,46,16.30
2014,08,01,04,47,16.30
2014,08,01,04,48,16.30
2014,08,01,04,49,16.30
2014,08,01,04,50,16.30
2014,08,01,04,51,16.30
2014,08,01,04,52,16.40
2014,08,01,04,53,16.40
2014,08,01,04,54,16.40
2014,08,01,04,55,16.50
2014,08,01,04,56,16.60
2014,08,01,04,57,16.70
2014,08,01,04,58,16.80
2014,08,01,04,59,16.90
2014,08,01,05,00,17.00
2014,08,01,05,01,17.00
2014,08,01,05,02,17.10
2014,08,01,05,03,17.00
2014,08,01,05,04,17.00
2014,08,01,05,05,17.00
2014,08,01,05,06,16.90
2014,08,01,05,07,16.90
2014,08,01,05,08,16.90
2014,08,01,05,09,16.90
2014,08,01,05,10,16.90
2014,08,01,05,11,16.80
2014,08,01,05,12,16.80
2014,08,01,05,13,16.80
2014,08,01,05,14,16.80
2014,08,01,05,15,16.90
2014,08,01,05,16,16.90
2014,08,01,05,17,16.90
2014,08,01,05,18,16.90
2014,08,01,05,19,16.90
2014,08,01,05,20,16.90
2014,08,01,05,21,16.90
2014,08,01,05,22,16.90
2014,08,01,05,23,16.90
2014,08,01,05,24,16.90
2014,08,01,05,25,16.90
2014,08,01,05,26,16.90
2014,08,01,05,27,16.90
2014,08,01,05,28,16.90
2014,08,01,05,29,16.80
2014,08,01,05,30,16.80
2014,08,01,05,31,16.80
2014,08,01,05,32,16.80
2014,08,01,05,33,16.80
2014,08,01,05,34,16.70
2014,08,01,05,35,16.70
2014,08,01,05,36,16.70
2014,08,01,05,37,16.60
2014,08,01,05,38,16.60
2014,08,01,05,39,16.50
2014,08,01,05,40,16.50
2014,08,01,05,41,16.40
2014,08,01,05,42,16.40
2014,08,01,05,43,16.30
2014,08,01,05,44,16.30
2014,08,01,05,45,16.20
2014,08,01,05,46,16.20
2014,08,01,05,47,16.20
2014,08,01,05,48,16.20
2014,08,01,05,49,16.10
2014,08,01,05,50,16.10
2014,08,01,05,51,16.10
2014,08,01,05,52,16.10
2014,08,01,05,53,16.10
2014,08,01,05,54,16.10
2014,08,01,05,55,16.10
2014,08,01,05,56,16.10
2014,08,01,05,57,16.10
2014,08,01,05,58,16.10
2014,08,01,05,59,16.10
2014,08,01,06,00,16.10
2014,08,01,06,01,16.10
2014,08,01,06,02,16.10
2014,08,01,06,03,16.10
2014,08,01,06,04,16.10
2014,08,01,06,05,16.10
2014,08,01,06,06,16.10
2014,08,01,06,07,16.10
2014,08,01,06,08,16.10
2014,08,01,06,09,16.10
2014,08,01,06,10,16.10
2014,08,01,06,11,16.10
2014,08,01,06,12,16.10
2014,08,01,06,13,16.10
2014,08,01,06,14,16.10
2014,08,01,06,15,16.10
2014,08,01,06,16,16.10
2014,08,01,06,17,16.10
2014,08,01,06,18,16.10
2014,08,01,06,19,16.10
2014,08,01,06,20,16.10
2014,08,01,06,21,16.10
2014,08,01,06,22,16.10
2014,08,01,06,23,16.10
2014,08,01,06,24,16.10
2014,08,01,06,25,16.10
2014,08,01,06,26,16.10
2014,08,01,06,27,16.10
2014,08,01,06,28,16.10
2014,08,01,06,29,16.10
2014,08,01,06,30,16.10
2014,08,01,06,31,16.10
2014,08,01,06,32,16.10
2014,08,01,06,33,16.10
2014,08,01,06,34,16.10
2014,08,01,06,35,16.10
2014,08,01,06,36,16.10
2014,08,01,06,37,16.20
2014,08,01,06,38,16.20
2014,08,01,06,39,16.20
2014,08,01,06,40,16.30
2014,08,01,06,41,16.30
2014,08,01,06,42,16.30
2014,08,01,06,43,16.40
2014,08,01,06,44,16.50
2014,08,01,06,45,16.50
2014,08,01,06,46,16.60
2014,08,01,06,47,16.60
2014,08,01,06,48,16.70
2014,08,01,06,49,16.70
2014,08,01,06,50,16.80
2014,08,01,06,51,16.80
2014,08,01,06,52,16.90
2014,08,01,06,53,16.90
2014,08,01,06,54,17.00
2014,08,01,06,55,17.10
2014,08,01,06,56,17.10
2014,08,01,06,57,17.20
2014,08,01,06,58,17.30
2014,08,01,06,59,17.30
2014,08,01,07,00,17.50
2014,08,01,07,01,17.60
2014,08,01,07,02,17.60
2014,08,01,07,03,17.70
2014,08,01,07,04,17.80
2014,08,01,07,05,17.80
2014,08,01,07,06,17.90
2014,08,01,07,07,18.00
2014,08,01,07,08,18.10
2014,08,01,07,09,18.10
2014,08,01,07,10,18.20
2014,08,01,07,11,18.30
2014,08,01,07,12,18.30
2014,08,01,07,13,18.40
2014,08,01,07,14,18.50
2014,08,01,07,15,18.60
2014,08,01,07,16,18.70
2014,08,01,07,17,18.70
2014,08,01,07,18,18.80
2014,08,01,07,19,18.90
2014,08,01,07,20,18.90
2014,08,01,07,21,19.00
2014,08,01,07,22,19.00
2014,08,01,07,23,19.10
2014,08,01,07,24,19.00
2014,08,01,07,25,18.90
2014,08,01,07,26,18.80
2014,08,01,07,27,18.70
2014,08,01,07,28,18.70
2014,08,01,07,29,18.70
2014,08,01,07,30,18.70
2014,08,01,07,31,18.70
2014,08,01,07,32,18.70
2014,08,01,07,33,18.80
2014,08,01,07,34,18.80
2014,08,01,07,35,18.90
2014,08,01,07,36,18.90
2014,08,01,07,37,19.00
2014,08,01,07,38,19.10
2014,08,01,07,39,19.20
2014,08,01,07,40,19.30
2014,08,01,07,41,19.40
2014,08,01,07,42,19.40
2014,08,01,07,43,19.50
2014,08,01,07,44,19.60
2014,08,01,07,45,19.60
2014,08,01,07,46,19.70
2014,08,01,07,47,19.80
2014,08,01,07,48,19.80
2014,08,01,07,49,19.80
2014,08,01,07,50,19.80
2014,08,01,07,51,19.80
2014,08,01,07,52,19.80
2014,08,01,07,53,19.80
2014,08,01,07,54,19.80
2014,08,01,07,55,19.80
2014,08,01,07,56,19.80
2014,08,01,07,57,19.90
2014,08,01,07,58,19.90
2014,08,01,07,59,19.90
2014,08,01,08,00,20.00
2014,08,01,08,01,20.00
2014,08,01,08,02,20.10
2014,08,01,08,03,20.20
2014,08,01,08,04,20.30
2014,08,01,08,05,20.40
2014,08,01,08,06,20.50
2014,08,01,08,07,20.60
2014,08,01,08,08,20.70
2014,08,01,08,09,20.80
2014,08,01,08,10,20.90
2014,08,01,08,11,20.90
2014,08,01,08,12,21.00
2014,08,01,08,13,21.10
2014,08,01,08,14,21.20
2014,08,01,08,15,21.30
2014,08,01,08,16,21.30
2014,08,01,08,17,21.40
2014,08,01,08,18,21.40
2014,08,01,08,19,21.50
2014,08,01,08,20,21.50
2014,08,01,08,21,21.60
2014,08,01,08,22,21.80
2014,08,01,08,23,21.80
2014,08,01,08,24,21.90
2014,08,01,08,25,22.00
2014,08,01,08,26,22.10
2014,08,01,08,27,22.20
2014,08,01,08,28,22.20
2014,08,01,08,29,22.30
2014,08,01,08,30,22.40
2014,08,01,08,31,22.60
2014,08,01,08,32,22.60
2014,08,01,08,33,22.70
2014,08,01,08,34,22.70
2014,08,01,08,35,22.80
2014,08,01,08,36,22.80
2014,08,01,08,37,22.80
2014,08,01,08,38,22.80
2014,08,01,08,39,22.80
2014,08,01,08,40,22.80
2014,08,01,08,41,22.90
2014,08,01,08,42,22.90
2014,08,01,08,43,22.90
2014,08,01,08,44,22.90
2014,08,01,08,45,23.00
2014,08,01,08,46,23.00
2014,08,01,08,47,23.00
2014,08,01,08,48,23.00
2014,08,01,08,49,23.00
2014,08,01,08,50,22.70
2014,08,01,08,51,22.60
2014,08,01,08,52,22.40
2014,08,01,08,53,22.30
2014,08,01,08,54,22.10
2014,08,01,08,55,21.90
2014,08,01,08,56,21.80
2014,08,01,08,57,21.70
2014,08,01,08,58,21.70
2014,08,01,08,59,21.70
2014,08,01,09,00,21.70
2014,08,01,09,01,21.60
2014,08,01,09,02,21.60
2014,08,01,09,03,21.60
2014,08,01,09,04,21.60
2014,08,01,09,05,21.60
2014,08,01,09,06,21.60
2014,08,01,09,07,21.50
2014,08,01,09,08,21.50
2014,08,01,09,09,21.40
2014,08,01,09,10,21.50
2014,08,01,09,11,21.50
2014,08,01,09,12,21.60
2014,08,01,09,13,21.70
2014,08,01,09,14,21.70
2014,08,01,09,15,21.80
2014,08,01,09,16,21.90
2014,08,01,09,17,22.10
2014,08,01,09,18,22.10
2014,08,01,09,19,22.20
2014,08,01,09,20,22.20
2014,08,01,09,21,22.20
2014,08,01,09,22,22.20
2014,08,01,09,23,22.20
2014,08,01,09,24,22.20
2014,08,01,09,25,22.20
2014,08,01,09,26,22.20
2014,08,01,09,27,22.10
2014,08,01,09,28,22.10
2014,08,01,09,29,22.00
2014,08,01,09,30,22.00
2014,08,01,09,31,21.90
2014,08,01,09,32,21.80
2014,08,01,09,33,21.90
2014,08,01,09,34,21.90
2014,08,01,09,35,22.00
2014,08,01,09,36,22.10
2014,08,01,09,37,22.20
2014,08,01,09,38,22.20
2014,08,01,09,39,22.30
2014,08,01,09,40,22.30
2014,08,01,09,41,22.30
2014,08,01,09,42,22.30
2014,08,01,09,43,22.30
2014,08,01,09,44,22.30
2014,08,01,09,45,22.30
2014,08,01,09,46,22.40
2014,08,01,09,47,22.50
2014,08,01,09,48,22.60
2014,08,01,09,49,22.70
2014,08,01,09,50,22.70
2014,08,01,09,51,22.70
2014,08,01,09,52,22.70
2014,08,01,09,53,22.70
2014,08,01,09,54,22.60
2014,08,01,09,55,22.60
2014,08,01,09,56,22.60
2014,08,01,09,57,22.60
2014,08,01,09,58,22.60
2014,08,01,09,59,22.60
2014,08,01,10,00,22.60
2014,08,01,10,01,22.60
2014,08,01,10,02,22.60
2014,08,01,10,03,22.60
2014,08,01,10,04,22.60
2014,08,01,10,05,22.60
2014,08,01,10,06,22.60
2014,08,01,10,07,22.60
2014,08,01,10,08,22.70
2014,08,01,10,09,22.70
2014,08,01,10,10,22.60
2014,08,01,10,11,22.60
2014,08,01,10,12,22.60
2014,08,01,10,13,22.60
2014,08,01,10,14,22.60
2014,08,01,10,15,22.60
2014,08,01,10,16,22.60
2014,08,01,10,17,22.60
2014,08,01,10,18,22.60
2014,08,01,10,19,22.60
2014,08,01,10,20,22.70
2014,08,01,10,21,22.70
2014,08,01,10,22,22.70
2014,08,01,10,23,22.70
2014,08,01,10,24,22.70
2014,08,01,10,25,22.70
2014,08,01,10,26,22.70
2014,08,01,10,27,22.70
2014,08,01,10,28,22.70
2014,08,01,10,29,22.70
2014,08,01,10,30,22.70
2014,08,01,10,31,22.70
2014,08,01,10,32,22.60
2014,08,01,10,33,22.60
2014,08,01,10,34,22.50
2014,08,01,10,35,22.40
2014,08,01,10,36,22.40
2014,08,01,10,37,22.40
2014,08,01,10,38,22.30
2014,08,01,10,39,22.30
2014,08,01,10,40,22.30
2014,08,01,10,41,22.30
2014,08,01,10,42,22.30
2014,08,01,10,43,22.30
2014,08,01,10,44,22.30
2014,08,01,10,45,22.30
2014,08,01,10,46,22.20
2014,08,01,10,47,22.20
2014,08,01,10,48,22.20
2014,08,01,10,49,22.30
2014,08,01,10,50,22.30
2014,08,01,10,51,22.30
2014,08,01,10,52,22.40
2014,08,01,10,53,22.50
2014,08,01,10,54,22.50
2014,08,01,10,55,22.60
2014,08,01,10,56,22.70
2014,08,01,10,57,22.90
2014,08,01,10,58,23.00
2014,08,01,10,59,23.30
2014,08,01,11,00,23.50
2014,08,01,11,01,23.60
2014,08,01,11,02,23.70
2014,08,01,11,03,23.80
2014,08,01,11,04,23.80
2014,08,01,11,05,23.90
2014,08,01,11,06,23.90
2014,08,01,11,07,24.00
2014,08,01,11,08,24.00
2014,08,01,11,09,23.90
2014,08,01,11,10,23.80
2014,08,01,11,11,23.70
2014,08,01,11,12,23.60
2014,08,01,11,13,23.40
2014,08,01,11,14,23.30
2014,08,01,11,15,23.20
2014,08,01,11,16,23.00
2014,08,01,11,17,22.90
2014,08,01,11,18,22.80
2014,08,01,11,19,22.70
2014,08,01,11,20,22.70
2014,08,01,11,21,22.70
2014,08,01,11,22,22.70
2014,08,01,11,23,22.80
2014,08,01,11,24,22.90
2014,08,01,11,25,23.10
2014,08,01,11,26,23.20
2014,08,01,11,27,23.40
2014,08,01,11,28,23.50
2014,08,01,11,29,23.50
2014,08,01,11,30,23.40
2014,08,01,11,31,23.30
2014,08,01,11,32,23.30
2014,08,01,11,33,23.30
2014,08,01,11,34,23.30
2014,08,01,11,35,23.40
2014,08,01,11,36,23.50
2014,08,01,11,37,23.60
2014,08,01,11,38,23.80
2014,08,01,11,39,23.90
2014,08,01,11,40,23.90
2014,08,01,11,41,23.80
2014,08,01,11,42,23.80
2014,08,01,11,43,23.70
2014,08,01,11,44,23.70
2014,08,01,11,45,23.70
2014,08,01,11,46,23.80
2014,08,01,11,47,23.80
2014,08,01,11,48,23.80
2014,08,01,11,49,23.80
2014,08,01,11,50,23.90
2014,08,01,11,51,23.90
2014,08,01,11,52,23.90
2014,08,01,11,53,23.90
2014,08,01,11,54,23.90
2014,08,01,11,55,24.00
2014,08,01,11,56,24.10
2014,08,01,11,57,24.10
2014,08,01,11,58,24.10
2014,08,01,11,59,24.00
2014,08,01,12,00,23.90
2014,08,01,12,01,23.80
2014,08,01,12,02,23.80
2014,08,01,12,03,23.80
2014,08,01,12,04,23.80
2014,08,01,12,05,23.80
2014,08,01,12,06,23.70
2014,08,01,12,07,23.80
2014,08,01,12,08,23.80
2014,08,01,12,09,23.90
2014,08,01,12,10,23.90
2014,08,01,12,11,23.90
2014,08,01,12,12,23.90
2014,08,01,12,13,24.00
2014,08,01,12,14,24.00
2014,08,01,12,15,24.10
2014,08,01,12,16,24.10
2014,08,01,12,17,24.20
2014,08,01,12,18,24.20
2014,08,01,12,19,24.20
2014,08,01,12,20,24.30
2014,08,01,12,21,24.30
2014,08,01,12,22,24.40
2014,08,01,12,23,24.40
2014,08,01,12,24,24.40
2014,08,01,12,25,24.30
2014,08,01,12,26,24.30
2014,08,01,12,27,24.20
2014,08,01,12,28,24.10
2014,08,01,12,29,24.00
2014,08,01,12,30,23.90
2014,08,01,12,31,23.90
2014,08,01,12,32,23.90
2014,08,01,12,33,23.80
2014,08,01,12,34,23.80
2014,08,01,12,35,23.70
2014,08,01,12,36,23.70
2014,08,01,12,37,23.70
2014,08,01,12,38,23.70
2014,08,01,12,39,23.70
2014,08,01,12,40,23.70
2014,08,01,12,41,23.70
2014,08,01,12,42,23.70
2014,08,01,12,43,23.60
2014,08,01,12,44,23.60
2014,08,01,12,45,23.50
2014,08,01,12,46,23.50
2014,08,01,12,47,23.50
2014,08,01,12,48,23.60
2014,08,01,12,49,23.60
2014,08,01,12,50,23.70
2014,08,01,12,51,23.70
2014,08,01,12,52,23.80
2014,08,01,12,53,24.00
2014,08,01,12,54,24.20
2014,08,01,12,55,24.30
2014,08,01,12,56,24.30
2014,08,01,12,57,24.40
2014,08,01,12,58,24.50
2014,08,01,12,59,24.60
2014,08,01,13,00,24.80
2014,08,01,13,01,24.90
2014,08,01,13,02,24.90
2014,08,01,13,03,25.00
2014,08,01,13,04,24.90
2014,08,01,13,05,24.90
2014,08,01,13,06,24.90
2014,08,01,13,07,24.80
2014,08,01,13,08,24.70
2014,08,01,13,09,24.70
2014,08,01,13,10,24.80
2014,08,01,13,11,24.80
2014,08,01,13,12,24.80
2014,08,01,13,13,24.90
2014,08,01,13,14,25.00
2014,08,01,13,15,25.10
2014,08,01,13,16,25.20
2014,08,01,13,17,25.20
2014,08,01,13,18,25.20
2014,08,01,13,19,25.30
2014,08,01,13,20,25.30
2014,08,01,13,21,25.30
2014,08,01,13,22,25.20
2014,08,01,13,23,25.20
2014,08,01,13,24,25.30
2014,08,01,13,25,25.40
2014,08,01,13,26,25.40
2014,08,01,13,27,25.40
2014,08,01,13,28,25.50
2014,08,01,13,29,25.60
2014,08,01,13,30,25.60
2014,08,01,13,31,25.70
2014,08,01,13,32,25.70
2014,08,01,13,33,25.70
2014,08,01,13,34,25.70
2014,08,01,13,35,25.80
2014,08,01,13,36,25.80
2014,08,01,13,37,25.80
2014,08,01,13,38,25.70
2014,08,01,13,39,25.60
2014,08,01,13,40,25.60
2014,08,01,13,41,25.60
2014,08,01,13,42,25.60
2014,08,01,13,43,25.60
2014,08,01,13,44,25.70
2014,08,01,13,45,25.90
2014,08,01,13,46,25.90
2014,08,01,13,47,25.90
2014,08,01,13,48,26.00
2014,08,01,13,49,26.10
2014,08,01,13,50,26.10
2014,08,01,13,51,26.10
2014,08,01,13,52,26.00
2014,08,01,13,53,25.90
2014,08,01,13,54,25.80
2014,08,01,13,55,25.60
2014,08,01,13,56,25.60
2014,08,01,13,57,25.60
2014,08,01,13,58,25.60
2014,08,01,13,59,25.60
2014,08,01,14,00,25.50
2014,08,01,14,01,25.40
2014,08,01,14,02,25.30
2014,08,01,14,03,25.10
2014,08,01,14,04,25.00
2014,08,01,14,05,24.90
2014,08,01,14,06,24.80
2014,08,01,14,07,24.70
2014,08,01,14,08,24.60
2014,08,01,14,09,24.60
2014,08,01,14,10,24.60
2014,08,01,14,11,24.60
2014,08,01,14,12,24.60
2014,08,01,14,13,24.70
2014,08,01,14,14,24.80
2014,08,01,14,15,24.90
2014,08,01,14,16,25.00
2014,08,01,14,17,25.20
2014,08,01,14,18,25.40
2014,08,01,14,19,25.50
2014,08,01,14,20,25.80
2014,08,01,14,21,25.90
2014,08,01,14,22,25.90
2014,08,01,14,23,25.90
2014,08,01,14,24,25.90
2014,08,01,14,25,26.00
2014,08,01,14,26,26.10
2014,08,01,14,27,26.20
2014,08,01,14,28,26.20
2014,08,01,14,29,26.10
2014,08,01,14,30,25.90
2014,08,01,14,31,25.90
2014,08,01,14,32,25.80
2014,08,01,14,33,25.90
2014,08,01,14,34,25.90
2014,08,01,14,35,26.00
2014,08,01,14,36,26.20
2014,08,01,14,37,26.30
2014,08,01,14,38,26.40
2014,08,01,14,39,26.40
2014,08,01,14,40,26.40
2014,08,01,14,41,26.30
2014,08,01,14,42,26.20
2014,08,01,14,43,26.20
2014,08,01,14,44,26.10
2014,08,01,14,45,26.20
2014,08,01,14,46,26.20
2014,08,01,14,47,26.30
2014,08,01,14,48,26.40
2014,08,01,14,49,26.40
2014,08,01,14,50,26.40
2014,08,01,14,51,26.30
2014,08,01,14,52,26.20
2014,08,01,14,53,26.20
2014,08,01,14,54,26.10
2014,08,01,14,55,26.00
2014,08,01,14,56,25.90
2014,08,01,14,57,26.00
2014,08,01,14,58,26.10
2014,08,01,14,59,26.20
2014,08,01,15,00,26.20
2014,08,01,15,01,26.20
2014,08,01,15,02,26.20
2014,08,01,15,03,26.20
2014,08,01,15,04,26.10
2014,08,01,15,05,26.20
2014,08,01,15,06,26.20
2014,08,01,15,07,26.20
2014,08,01,15,08,26.20
2014,08,01,15,09,26.20
2014,08,01,15,10,26.10
2014,08,01,15,11,26.00
2014,08,01,15,12,26.00
2014,08,01,15,13,25.90
2014,08,01,15,14,25.90
2014,08,01,15,15,25.80
2014,08,01,15,16,25.80
2014,08,01,15,17,25.70
2014,08,01,15,18,25.70
2014,08,01,15,19,25.70
2014,08,01,15,20,25.80
2014,08,01,15,21,25.90
2014,08,01,15,22,25.90
2014,08,01,15,23,25.90
2014,08,01,15,24,25.80
2014,08,01,15,25,25.80
2014,08,01,15,26,25.60
2014,08,01,15,27,25.50
2014,08,01,15,28,25.40
2014,08,01,15,29,25.30
2014,08,01,15,30,25.30
2014,08,01,15,31,25.20
2014,08,01,15,32,25.10
2014,08,01,15,33,25.10
2014,08,01,15,34,25.00
2014,08,01,15,35,24.90
2014,08,01,15,36,24.80
2014,08,01,15,37,24.80
2014,08,01,15,38,24.70
2014,08,01,15,39,24.70
2014,08,01,15,40,24.60
2014,08,01,15,41,24.60
2014,08,01,15,42,24.60
2014,08,01,15,43,24.60
2014,08,01,15,44,24.60
2014,08,01,15,45,24.60
2014,08,01,15,46,24.70
2014,08,01,15,47,24.70
2014,08,01,15,48,24.70
2014,08,01,15,49,24.70
2014,08,01,15,50,24.70
2014,08,01,15,51,24.70
2014,08,01,15,52,24.70
2014,08,01,15,53,24.70
2014,08,01,15,54,24.70
2014,08,01,15,55,24.70
2014,08,01,15,56,24.70
2014,08,01,15,57,24.70
2014,08,01,15,58,24.60
2014,08,01,15,59,24.50
2014,08,01,16,00,24.40
2014,08,01,16,01,24.30
2014,08,01,16,02,24.30
2014,08,01,16,03,24.10
2014,08,01,16,04,24.00
2014,08,01,16,05,23.80
2014,08,01,16,06,23.70
2014,08,01,16,07,23.50
2014,08,01,16,08,23.40
2014,08,01,16,09,23.20
2014,08,01,16,10,23.10
2014,08,01,16,11,23.00
2014,08,01,16,12,22.90
2014,08,01,16,13,22.90
2014,08,01,16,14,22.90
2014,08,01,16,15,22.90
2014,08,01,16,16,22.90
2014,08,01,16,17,22.90
2014,08,01,16,18,22.80
2014,08,01,16,19,22.70
2014,08,01,16,20,22.60
2014,08,01,16,21,22.50
2014,08,01,16,22,22.40
2014,08,01,16,23,22.30
2014,08,01,16,24,22.20
2014,08,01,16,25,21.90
2014,08,01,16,26,21.70
2014,08,01,16,27,21.50
2014,08,01,16,28,21.30
2014,08,01,16,29,21.20
2014,08,01,16,30,21.20
2014,08,01,16,31,21.10
2014,08,01,16,32,21.10
2014,08,01,16,33,21.10
2014,08,01,16,34,21.20
2014,08,01,16,35,21.30
2014,08,01,16,36,21.30
2014,08,01,16,37,21.30
2014,08,01,16,38,21.40
2014,08,01,16,39,21.40
2014,08,01,16,40,21.50
2014,08,01,16,41,21.60
2014,08,01,16,42,21.60
2014,08,01,16,43,21.70
2014,08,01,16,44,21.70
2014,08,01,16,45,21.80
2014,08,01,16,46,21.80
2014,08,01,16,47,21.90
2014,08,01,16,48,22.00
2014,08,01,16,49,22.10
2014,08,01,16,50,22.20
2014,08,01,16,51,22.40
2014,08,01,16,52,22.50
2014,08,01,16,53,22.70
2014,08,01,16,54,22.80
2014,08,01,16,55,22.90
2014,08,01,16,56,23.10
2014,08,01,16,57,23.20
2014,08,01,16,58,23.20
2014,08,01,16,59,23.10
2014,08,01,17,00,23.00
2014,08,01,17,01,23.00
2014,08,01,17,02,22.90
2014,08,01,17,03,22.90
2014,08,01,17,04,22.90
2014,08,01,17,05,23.00
2014,08,01,17,06,23.10
2014,08,01,17,07,23.10
2014,08,01,17,08,23.10
2014,08,01,17,09,23.20
2014,08,01,17,10,23.30
2014,08,01,17,11,23.30
2014,08,01,17,12,23.40
2014,08,01,17,13,23.50
2014,08,01,17,14,23.60
2014,08,01,17,15,23.50
2014,08,01,17,16,23.30
2014,08,01,17,17,23.00
2014,08,01,17,18,22.80
2014,08,01,17,19,22.60
2014,08,01,17,20,22.40
2014,08,01,17,21,22.40